,,Stat5,,Stat1,,Stat2,,Stat3,,Stat4,,Wind1,,Wind1,
time,status,PA1M_AVG,status,PR1M_SUM,status,RH1M_AVG,status,SR1M_AVG,status,TA1M_AVG,status,W1dAve1m,status,W1sAve1m,
2003-04-23, 00:00:00,VALID,917.822,VALID,0,VALID,99.2907,VALID,0.20377,VALID,19.4166,VALID,139,VALID,1.35403,
2003-04-23, 00:01:00,VALID,917.822,VALID,0,VALID,99.2691,VALID,0.237732,VALID,19.4194,VALID,133,VALID,1.30449,
2003-04-23, 00:02:00,VALID,917.826,VALID,0,VALID,99.2551,VALID,0.152827,VALID,19.4233,VALID,137,VALID,1.3111,
2003-04-23, 00:03:00,VALID,917.828,VALID,0,VALID,99.2347,VALID,0.169808,VALID,19.4258,VALID,151,VALID,1.80659,
2003-04-23, 00:04:00,VALID,917.835,VALID,0,VALID,99.236,VALID,0.135847,VALID,19.4465,VALID,146,VALID,1.94436,
2003-04-23, 00:05:00,VALID,917.843,VALID,0,VALID,99.2309,VALID,0.186789,VALID,19.4291,VALID,120,VALID,1.2572,
2003-04-23, 00:06:00,VALID,917.862,VALID,0,VALID,99.208,VALID,0.169808,VALID,19.439,VALID,121,VALID,1.13836,
2003-04-23, 00:07:00,VALID,917.857,VALID,0,VALID,99.1457,VALID,0.152827,VALID,19.433,VALID,112,VALID,1.52644,
2003-04-23, 00:08:00,VALID,917.861,VALID,0,VALID,99.086,VALID,0.20377,VALID,19.4323,VALID,112,VALID,1.06065,
2003-04-23, 00:09:00,VALID,917.862,VALID,0,VALID,99.0783,VALID,0.254712,VALID,19.4572,VALID,80,VALID,1.00438,
2003-04-23, 00:10:00,VALID,917.86,VALID,0,VALID,98.9766,VALID,0.271693,VALID,19.4641,VALID,94,VALID,1.63802,
2003-04-23, 00:11:00,VALID,917.841,VALID,0,VALID,98.8278,VALID,0.305655,VALID,19.4863,VALID,107,VALID,1.41289,
2003-04-23, 00:12:00,VALID,917.839,VALID,0,VALID,98.59,VALID,0.339617,VALID,19.5218,VALID,92,VALID,1.27885,
2003-04-23, 00:13:00,VALID,917.843,VALID,0,VALID,98.365,VALID,0.254712,VALID,19.5509,VALID,84,VALID,1.5545,
2003-04-23, 00:14:00,VALID,917.841,VALID,0,VALID,98.2162,VALID,0.237732,VALID,19.5475,VALID,100,VALID,0.929054,
2003-04-23, 00:15:00,VALID,917.846,VALID,0,VALID,98.1335,VALID,0.305655,VALID,19.5636,VALID,110,VALID,1.13482,
2003-04-23, 00:16:00,VALID,917.866,VALID,0,VALID,97.9949,VALID,0.339617,VALID,19.5472,VALID,94,VALID,1.40273,
2003-04-23, 00:17:00,VALID,917.874,VALID,0,VALID,97.8652,VALID,0.271693,VALID,19.5666,VALID,84,VALID,1.1814,
2003-04-23, 00:18:00,VALID,917.893,VALID,0,VALID,97.8652,VALID,0.305655,VALID,19.5793,VALID,52,VALID,1.18998,
2003-04-23, 00:19:00,VALID,917.908,VALID,0,VALID,97.8309,VALID,0.220751,VALID,19.5922,VALID,91,VALID,1.13767,
2003-04-23, 00:20:00,VALID,917.931,VALID,0,VALID,97.7877,VALID,0.271693,VALID,19.593,VALID,95,VALID,0.686198,
2003-04-23, 00:21:00,VALID,917.929,VALID,0,VALID,97.9568,VALID,0.305655,VALID,19.5994,VALID,70,VALID,0.382254,
2003-04-23, 00:22:00,VALID,917.924,VALID,0,VALID,97.9046,VALID,0.20377,VALID,19.5895,VALID,119,VALID,0.967483,
2003-04-23, 00:23:00,VALID,917.935,VALID,0,VALID,97.9161,VALID,0.339617,VALID,19.5674,VALID,63,VALID,0.654297,
2003-04-23, 00:24:00,VALID,917.929,VALID,0,VALID,98.0051,VALID,0.152827,VALID,19.5582,VALID,78,VALID,0.742411,
2003-04-23, 00:25:00,VALID,917.938,VALID,0,VALID,97.9975,VALID,0.152827,VALID,19.5591,VALID,73,VALID,0.738281,
2003-04-23, 00:26:00,VALID,917.933,VALID,0,VALID,97.9339,VALID,0.118866,VALID,19.5489,VALID,100,VALID,0.781696,
2003-04-23, 00:27:00,VALID,917.942,VALID,0,VALID,98.0572,VALID,0.169808,VALID,19.5462,VALID,70,VALID,0.128084,
2003-04-23, 00:28:00,VALID,917.939,VALID,0,VALID,98.0928,VALID,0.118866,VALID,19.539,VALID,94,VALID,0.508635,
2003-04-23, 00:29:00,VALID,917.929,VALID,0,VALID,98.1081,VALID,0.152827,VALID,19.5226,VALID,112,VALID,0.54523,
2003-04-23, 00:30:00,VALID,917.914,VALID,0,VALID,98.1971,VALID,0.118866,VALID,19.5,VALID,114,VALID,0.489309,
2003-04-23, 00:31:00,VALID,917.904,VALID,0,VALID,98.2416,VALID,0.20377,VALID,19.5072,VALID,128,VALID,0.586965,
2003-04-23, 00:32:00,VALID,917.893,VALID,0,VALID,98.2963,VALID,0.135847,VALID,19.494,VALID,117,VALID,0.528906,
2003-04-23, 00:33:00,VALID,917.879,VALID,0,VALID,98.2823,VALID,0.152827,VALID,19.4878,VALID,112,VALID,0.329963,
2003-04-23, 00:34:00,VALID,917.857,VALID,0,VALID,98.3344,VALID,0.0849042,VALID,19.4778,VALID,120,VALID,0.146234,
2003-04-23, 00:35:00,VALID,917.851,VALID,0,VALID,98.4057,VALID,0.152827,VALID,19.4781,VALID,116,VALID,0.0793269,
2003-04-23, 00:36:00,VALID,917.837,VALID,0,VALID,98.4654,VALID,0.0679233,VALID,19.481,VALID,75,VALID,0.13014,
2003-04-23, 00:37:00,VALID,917.814,VALID,0,VALID,98.5366,VALID,0.0849042,VALID,19.491,VALID,50,VALID,0.476563,
2003-04-23, 00:38:00,VALID,917.802,VALID,0,VALID,98.6002,VALID,0.220751,VALID,19.5198,VALID,25,VALID,0.856702,
2003-04-23, 00:39:00,VALID,917.799,VALID,0,VALID,98.6066,VALID,0.101885,VALID,19.5206,VALID,33,VALID,0.899239,
2003-04-23, 00:40:00,VALID,917.779,VALID,0,VALID,98.5824,VALID,0.169808,VALID,19.5072,VALID,40,VALID,1.01391,
2003-04-23, 00:41:00,VALID,917.778,VALID,0,VALID,98.468,VALID,0.186789,VALID,19.487,VALID,55,VALID,1.1252,
2003-04-23, 00:42:00,VALID,917.763,VALID,0,VALID,98.4196,VALID,0.20377,VALID,19.4589,VALID,51,VALID,1.29182,
2003-04-23, 00:43:00,VALID,917.75,VALID,0,VALID,98.4413,VALID,0.152827,VALID,19.4554,VALID,39,VALID,1.0957,
2003-04-23, 00:44:00,VALID,917.728,VALID,0,VALID,98.5074,VALID,0.118866,VALID,19.4753,VALID,33,VALID,1.0587,
2003-04-23, 00:45:00,VALID,917.71,VALID,0,VALID,98.5354,VALID,0.152827,VALID,19.4688,VALID,41,VALID,1.00117,
2003-04-23, 00:46:00,VALID,917.702,VALID,0,VALID,98.5328,VALID,0.186789,VALID,19.4527,VALID,32,VALID,1.0553,
2003-04-23, 00:47:00,VALID,917.687,VALID,0,VALID,98.6435,VALID,0.135847,VALID,19.4718,VALID,13,VALID,1.06688,
2003-04-23, 00:48:00,VALID,917.677,VALID,0.2,VALID,98.6727,VALID,0.169808,VALID,19.4519,VALID,24,VALID,0.990709,
2003-04-23, 00:49:00,VALID,917.656,VALID,0,VALID,98.674,VALID,0.169808,VALID,19.4258,VALID,29,VALID,0.814704,
2003-04-23, 00:50:00,VALID,917.651,VALID,0,VALID,98.7503,VALID,0.220751,VALID,19.3962,VALID,31,VALID,0.748094,
2003-04-23, 00:51:00,VALID,917.64,VALID,0,VALID,98.8316,VALID,0.152827,VALID,19.4136,VALID,27,VALID,0.500411,
2003-04-23, 00:52:00,VALID,917.615,VALID,0,VALID,98.941,VALID,0.186789,VALID,19.4161,VALID,30,VALID,0.644431,
2003-04-23, 00:53:00,VALID,917.602,VALID,0,VALID,98.9461,VALID,0.152827,VALID,19.4159,VALID,47,VALID,0.624199,
2003-04-23, 00:54:00,VALID,917.582,VALID,0,VALID,98.9258,VALID,0.169808,VALID,19.3843,VALID,40,VALID,0.879607,
2003-04-23, 00:55:00,VALID,917.564,VALID,0,VALID,98.9982,VALID,0.169808,VALID,19.3977,VALID,41,VALID,0.583984,
2003-04-23, 00:56:00,VALID,917.56,VALID,0,VALID,99.0707,VALID,0.101885,VALID,19.4064,VALID,30,VALID,0.69043,
2003-04-23, 00:57:00,VALID,917.538,VALID,0,VALID,99.0618,VALID,0.254712,VALID,19.4099,VALID,30,VALID,0.844893,
2003-04-23, 00:58:00,VALID,917.514,VALID,0,VALID,99.058,VALID,0.135847,VALID,19.3808,VALID,34,VALID,0.91808,
2003-04-23, 00:59:00,VALID,917.492,VALID,0,VALID,99.0771,VALID,0.20377,VALID,19.3845,VALID,25,VALID,0.83636,
2003-04-23, 01:00:00,VALID,917.466,VALID,0,VALID,99.1343,VALID,0.101885,VALID,19.3843,VALID,13,VALID,0.88978,
2003-04-23, 01:01:00,VALID,917.44,VALID,0,VALID,99.1597,VALID,0.20377,VALID,19.394,VALID,13,VALID,0.94299,
2003-04-23, 01:02:00,VALID,917.432,VALID,0,VALID,99.1521,VALID,0.118866,VALID,19.3942,VALID,20,VALID,0.485137,
2003-04-23, 01:03:00,VALID,917.415,VALID,0,VALID,99.1483,VALID,0.186789,VALID,19.391,VALID,348,VALID,0.523026,
2003-04-23, 01:04:00,VALID,917.407,VALID,0,VALID,99.1127,VALID,0.152827,VALID,19.3517,VALID,320,VALID,0.436699,
2003-04-23, 01:05:00,VALID,917.39,VALID,0,VALID,99.1534,VALID,0.20377,VALID,19.3328,VALID,328,VALID,0.515842,
2003-04-23, 01:06:00,VALID,917.386,VALID,0,VALID,99.1966,VALID,0.152827,VALID,19.3323,VALID,332,VALID,0.313086,
2003-04-23, 01:07:00,VALID,917.374,VALID,0,VALID,99.2347,VALID,0.169808,VALID,19.3241,VALID,314,VALID,0.534288,
2003-04-23, 01:08:00,VALID,917.352,VALID,0,VALID,99.2805,VALID,0.0679233,VALID,19.297,VALID,323,VALID,0.333934,
2003-04-23, 01:09:00,VALID,917.359,VALID,0,VALID,99.3479,VALID,0.220751,VALID,19.3005,VALID,343,VALID,0.284961,
2003-04-23, 01:10:00,VALID,917.342,VALID,0,VALID,99.428,VALID,0.0849042,VALID,19.3161,VALID,345,VALID,0.301758,
2003-04-23, 01:11:00,VALID,917.329,VALID,0,VALID,99.4725,VALID,0.135847,VALID,19.3423,VALID,351,VALID,0.336338,
2003-04-23, 01:12:00,VALID,917.317,VALID,0,VALID,99.4814,VALID,0.237732,VALID,19.3524,VALID,351,VALID,0.272382,
2003-04-23, 01:13:00,VALID,917.304,VALID,0,VALID,99.5043,VALID,0.101885,VALID,19.3457,VALID,351,VALID,0.162109,
2003-04-23, 01:14:00,VALID,917.291,VALID,0,VALID,99.5081,VALID,0.135847,VALID,19.3487,VALID,351,VALID,0.0132813,
2003-04-23, 01:15:00,VALID,917.27,VALID,0,VALID,99.5272,VALID,0.152827,VALID,19.3358,VALID,351,VALID,0.00105574,
2003-04-23, 01:16:00,VALID,917.27,VALID,0,VALID,99.5336,VALID,0.20377,VALID,19.3457,VALID,351,VALID,0,
2003-04-23, 01:17:00,VALID,917.253,VALID,0,VALID,99.5132,VALID,0.152827,VALID,19.3161,VALID,351,VALID,0,
2003-04-23, 01:18:00,VALID,917.253,VALID,0,VALID,99.5221,VALID,0.101885,VALID,19.3166,VALID,351,VALID,0,
2003-04-23, 01:19:00,VALID,917.231,VALID,0,VALID,99.5221,VALID,0.135847,VALID,19.3102,VALID,351,VALID,0,
2003-04-23, 01:20:00,VALID,917.219,VALID,0,VALID,99.5387,VALID,0.186789,VALID,19.3037,VALID,351,VALID,0,
2003-04-23, 01:21:00,VALID,917.205,VALID,0,VALID,99.5628,VALID,0.101885,VALID,19.2967,VALID,351,VALID,0,
2003-04-23, 01:22:00,VALID,917.182,VALID,0,VALID,99.5768,VALID,0.0849042,VALID,19.3072,VALID,351,VALID,0,
2003-04-23, 01:23:00,VALID,917.186,VALID,0,VALID,99.5781,VALID,0.135847,VALID,19.3042,VALID,351,VALID,0,
2003-04-23, 01:24:00,VALID,917.172,VALID,0,VALID,99.5768,VALID,0.135847,VALID,19.2912,VALID,351,VALID,0.267969,
2003-04-23, 01:25:00,VALID,917.154,VALID,0,VALID,99.5933,VALID,0.101885,VALID,19.2975,VALID,351,VALID,0.0611662,
2003-04-23, 01:26:00,VALID,917.142,VALID,0,VALID,99.5806,VALID,0.101885,VALID,19.2781,VALID,351,VALID,0.104611,
2003-04-23, 01:27:00,VALID,917.134,VALID,0,VALID,99.5819,VALID,0.118866,VALID,19.2679,VALID,351,VALID,0,
2003-04-23, 01:28:00,VALID,917.118,VALID,0,VALID,99.5908,VALID,0.0849042,VALID,19.2554,VALID,351,VALID,0,
2003-04-23, 01:29:00,VALID,917.115,VALID,0,VALID,99.6073,VALID,0.135847,VALID,19.2522,VALID,351,VALID,0,
2003-04-23, 01:30:00,VALID,917.096,VALID,0,VALID,99.6099,VALID,0.0849042,VALID,19.2522,VALID,351,VALID,0,
2003-04-23, 01:31:00,VALID,917.073,VALID,0,VALID,99.6251,VALID,0.152827,VALID,19.2457,VALID,351,VALID,0,
2003-04-23, 01:32:00,VALID,917.063,VALID,0,VALID,99.6493,VALID,0.101885,VALID,19.2582,VALID,351,VALID,0,
2003-04-23, 01:33:00,VALID,917.039,VALID,0,VALID,99.6569,VALID,0.135847,VALID,19.249,VALID,351,VALID,0,
2003-04-23, 01:34:00,VALID,917.024,VALID,0,VALID,99.662,VALID,0.0339617,VALID,19.2485,VALID,351,VALID,0,
2003-04-23, 01:35:00,VALID,917.003,VALID,0,VALID,99.6671,VALID,0.152827,VALID,19.2487,VALID,351,VALID,0,
2003-04-23, 01:36:00,VALID,916.99,VALID,0,VALID,99.676,VALID,0.0509425,VALID,19.2684,VALID,351,VALID,0,
2003-04-23, 01:37:00,VALID,916.994,VALID,0,VALID,99.6811,VALID,0.101885,VALID,19.2612,VALID,351,VALID,0,
2003-04-23, 01:38:00,VALID,916.992,VALID,0,VALID,99.6849,VALID,0.0849042,VALID,19.2684,VALID,351,VALID,0,
2003-04-23, 01:39:00,VALID,916.995,VALID,0,VALID,99.69,VALID,0.169808,VALID,19.2815,VALID,351,VALID,0,
2003-04-23, 01:40:00,VALID,916.996,VALID,0,VALID,99.6773,VALID,0.118866,VALID,19.2689,VALID,351,VALID,0,
2003-04-23, 01:41:00,VALID,916.989,VALID,0,VALID,99.6874,VALID,0.101885,VALID,19.2495,VALID,351,VALID,0,
2003-04-23, 01:42:00,VALID,916.996,VALID,0,VALID,99.676,VALID,0.0339617,VALID,19.246,VALID,351,VALID,0,
2003-04-23, 01:43:00,VALID,916.998,VALID,0,VALID,99.6836,VALID,0.101885,VALID,19.2365,VALID,351,VALID,0.115585,
2003-04-23, 01:44:00,VALID,916.986,VALID,0,VALID,99.6785,VALID,0.0169808,VALID,19.2233,VALID,60,VALID,0.336554,
2003-04-23, 01:45:00,VALID,916.974,VALID,0,VALID,99.6709,VALID,0.0339617,VALID,19.2042,VALID,127,VALID,0.44391,
2003-04-23, 01:46:00,VALID,916.976,VALID,0,VALID,99.6506,VALID,0.0509425,VALID,19.1955,VALID,131,VALID,0.465049,
2003-04-23, 01:47:00,VALID,916.977,VALID,0,VALID,99.6646,VALID,-0.0679233,VALID,19.1832,VALID,124,VALID,0.492588,
2003-04-23, 01:48:00,VALID,916.956,VALID,0,VALID,99.6544,VALID,-0.0339617,VALID,19.1601,VALID,114,VALID,0.765053,
2003-04-23, 01:49:00,VALID,916.946,VALID,0,VALID,99.6735,VALID,-0.0339617,VALID,19.1571,VALID,115,VALID,0.836939,
2003-04-23, 01:50:00,VALID,916.946,VALID,0,VALID,99.6913,VALID,0.0339617,VALID,19.1541,VALID,120,VALID,0.813879,
2003-04-23, 01:51:00,VALID,916.918,VALID,0,VALID,99.7281,VALID,-0.0509425,VALID,19.1703,VALID,124,VALID,0.608203,
2003-04-23, 01:52:00,VALID,916.908,VALID,0,VALID,99.7307,VALID,-0.0679233,VALID,19.1703,VALID,127,VALID,0.733319,
2003-04-23, 01:53:00,VALID,916.881,VALID,0,VALID,99.7319,VALID,-0.0339617,VALID,19.1733,VALID,143,VALID,0.670898,
2003-04-23, 01:54:00,VALID,916.869,VALID,0,VALID,99.7218,VALID,0.135847,VALID,19.148,VALID,128,VALID,0.683183,
2003-04-23, 01:55:00,VALID,916.834,VALID,0,VALID,99.7129,VALID,0.152827,VALID,19.1644,VALID,127,VALID,0.434451,
2003-04-23, 01:56:00,VALID,916.804,VALID,0,VALID,99.7027,VALID,0.152827,VALID,19.158,VALID,123,VALID,0.721073,
2003-04-23, 01:57:00,VALID,916.778,VALID,0,VALID,99.7065,VALID,0.186789,VALID,19.1448,VALID,135,VALID,0.36899,
2003-04-23, 01:58:00,VALID,916.743,VALID,0,VALID,99.6874,VALID,0.20377,VALID,19.1351,VALID,121,VALID,0.806402,
2003-04-23, 01:59:00,VALID,916.703,VALID,0,VALID,99.6824,VALID,0.152827,VALID,19.109,VALID,108,VALID,0.937911,
2003-04-23, 02:00:00,VALID,916.666,VALID,0,VALID,99.676,VALID,0.169808,VALID,19.1057,VALID,117,VALID,0.632011,
2003-04-23, 02:01:00,VALID,916.641,VALID,0,VALID,99.6798,VALID,0.169808,VALID,19.1083,VALID,117,VALID,0.672075,
2003-04-23, 02:02:00,VALID,916.614,VALID,0,VALID,99.6836,VALID,0.169808,VALID,19.0965,VALID,111,VALID,0.859776,
2003-04-23, 02:03:00,VALID,916.612,VALID,0,VALID,99.6811,VALID,0.20377,VALID,19.0762,VALID,104,VALID,0.979102,
2003-04-23, 02:04:00,VALID,916.611,VALID,0,VALID,99.7014,VALID,0.169808,VALID,19.0794,VALID,113,VALID,1.1252,
2003-04-23, 02:05:00,VALID,916.612,VALID,0,VALID,99.6887,VALID,0.237732,VALID,19.0764,VALID,111,VALID,1.27992,
2003-04-23, 02:06:00,VALID,916.603,VALID,0,VALID,99.7078,VALID,0.186789,VALID,19.0699,VALID,110,VALID,0.912946,
2003-04-23, 02:07:00,VALID,916.602,VALID,0,VALID,99.7192,VALID,0.20377,VALID,19.0637,VALID,123,VALID,1.06208,
2003-04-23, 02:08:00,VALID,916.61,VALID,0,VALID,99.7408,VALID,0.135847,VALID,19.0535,VALID,126,VALID,0.681799,
2003-04-23, 02:09:00,VALID,916.607,VALID,0,VALID,99.7497,VALID,0.135847,VALID,19.0485,VALID,117,VALID,0.901605,
2003-04-23, 02:10:00,VALID,916.618,VALID,0,VALID,99.7625,VALID,0.0339617,VALID,19.052,VALID,105,VALID,0.389863,
2003-04-23, 02:11:00,VALID,916.611,VALID,0,VALID,99.7688,VALID,0.0849042,VALID,19.0487,VALID,137,VALID,0.603002,
2003-04-23, 02:12:00,VALID,916.603,VALID,0,VALID,99.779,VALID,0.0679233,VALID,19.0555,VALID,132,VALID,0.829928,
2003-04-23, 02:13:00,VALID,916.593,VALID,0,VALID,99.7879,VALID,0.118866,VALID,19.0624,VALID,137,VALID,1.04688,
2003-04-23, 02:14:00,VALID,916.568,VALID,0,VALID,99.8057,VALID,0.0679233,VALID,19.0485,VALID,132,VALID,0.776172,
2003-04-23, 02:15:00,VALID,916.549,VALID,0,VALID,99.8133,VALID,0.118866,VALID,19.0425,VALID,115,VALID,0.580295,
2003-04-23, 02:16:00,VALID,916.532,VALID,0,VALID,99.8159,VALID,0.0679233,VALID,19.0592,VALID,134,VALID,0.907853,
2003-04-23, 02:17:00,VALID,916.507,VALID,0,VALID,99.8222,VALID,0.118866,VALID,19.046,VALID,143,VALID,0.8625,
2003-04-23, 02:18:00,VALID,916.499,VALID,0,VALID,99.8349,VALID,0.0169808,VALID,19.0323,VALID,114,VALID,0.605859,
2003-04-23, 02:19:00,VALID,916.501,VALID,0,VALID,99.8235,VALID,0.0509425,VALID,19.0398,VALID,85,VALID,0.75601,
2003-04-23, 02:20:00,VALID,916.504,VALID,0,VALID,99.826,VALID,0.169808,VALID,19.0229,VALID,81,VALID,0.982475,
2003-04-23, 02:21:00,VALID,916.508,VALID,0,VALID,99.8273,VALID,0.0509425,VALID,19.0363,VALID,80,VALID,1.06816,
2003-04-23, 02:22:00,VALID,916.533,VALID,0,VALID,99.8299,VALID,0.0509425,VALID,19.0268,VALID,93,VALID,1.18496,
2003-04-23, 02:23:00,VALID,916.534,VALID,0,VALID,99.8248,VALID,0.0679233,VALID,19.0002,VALID,94,VALID,1.01119,
2003-04-23, 02:24:00,VALID,916.537,VALID,0,VALID,99.8197,VALID,0.135847,VALID,19.0236,VALID,111,VALID,0.905777,
2003-04-23, 02:25:00,VALID,916.543,VALID,0,VALID,99.8286,VALID,0.0679233,VALID,19.0268,VALID,113,VALID,0.676883,
2003-04-23, 02:26:00,VALID,916.541,VALID,0,VALID,99.8299,VALID,0.0509425,VALID,19.0331,VALID,109,VALID,1.05469,
2003-04-23, 02:27:01,VALID,916.531,VALID,0,VALID,99.8248,VALID,0.0849042,VALID,19.042,VALID,74,VALID,0.591992,
2003-04-23, 02:28:00,VALID,916.516,VALID,0,VALID,99.7904,VALID,0.135847,VALID,19.0656,VALID,91,VALID,0.314303,
2003-04-23, 02:29:00,VALID,916.514,VALID,0,VALID,99.7828,VALID,0.118866,VALID,19.0584,VALID,91,VALID,0.0725991,
2003-04-23, 02:30:00,VALID,916.502,VALID,0,VALID,99.7752,VALID,0.0849042,VALID,19.0818,VALID,91,VALID,0.157728,
2003-04-23, 02:31:00,VALID,916.51,VALID,0,VALID,99.7536,VALID,0.118866,VALID,19.0614,VALID,91,VALID,0.229167,
2003-04-23, 02:32:00,VALID,916.502,VALID,0,VALID,99.7345,VALID,0.135847,VALID,19.0719,VALID,91,VALID,0.30332,
2003-04-23, 02:33:00,VALID,916.501,VALID,0,VALID,99.7167,VALID,0.0849042,VALID,19.0908,VALID,65,VALID,0.353849,
2003-04-23, 02:34:00,VALID,916.495,VALID,0,VALID,99.7091,VALID,0.101885,VALID,19.1007,VALID,26,VALID,0.666921,
2003-04-23, 02:35:00,VALID,916.492,VALID,0,VALID,99.7091,VALID,0.0849042,VALID,19.1169,VALID,25,VALID,0.566934,
2003-04-23, 02:36:01,VALID,916.477,VALID,0,VALID,99.6544,VALID,0.0849042,VALID,19.0813,VALID,24,VALID,0.479353,
2003-04-23, 02:37:00,VALID,916.467,VALID,0,VALID,99.6162,VALID,0.118866,VALID,19.0617,VALID,24,VALID,0.377232,
2003-04-23, 02:38:00,VALID,916.45,VALID,0,VALID,99.5997,VALID,0.0679233,VALID,19.0619,VALID,24,VALID,0.36761,
2003-04-23, 02:39:00,VALID,916.432,VALID,0,VALID,99.5832,VALID,0.220751,VALID,19.0582,VALID,24,VALID,0.206055,
2003-04-23, 02:40:00,VALID,916.434,VALID,0,VALID,99.5514,VALID,0.152827,VALID,19.0212,VALID,24,VALID,0.225446,
2003-04-23, 02:41:00,VALID,916.421,VALID,0,VALID,99.5298,VALID,0.220751,VALID,19.0125,VALID,24,VALID,0.23329,
2003-04-23, 02:42:01,VALID,916.415,VALID,0,VALID,99.5399,VALID,0.118866,VALID,19.0087,VALID,24,VALID,0.298438,
2003-04-23, 02:43:00,VALID,916.435,VALID,0,VALID,99.5603,VALID,0.186789,VALID,19.0092,VALID,24,VALID,0.159128,
2003-04-23, 02:44:00,VALID,916.426,VALID,0,VALID,99.5895,VALID,0.135847,VALID,19.0416,VALID,24,VALID,0.0974507,
2003-04-23, 02:45:00,VALID,916.425,VALID,0,VALID,99.5806,VALID,0.20377,VALID,19.0413,VALID,24,VALID,0.0583882,
2003-04-23, 02:46:00,VALID,916.427,VALID,0,VALID,99.5692,VALID,0.169808,VALID,19.0281,VALID,24,VALID,0.175576,
2003-04-23, 02:47:01,VALID,916.425,VALID,0,VALID,99.5488,VALID,0.220751,VALID,19.0155,VALID,24,VALID,0.0785362,
2003-04-23, 02:48:00,VALID,916.422,VALID,0,VALID,99.5501,VALID,0.152827,VALID,19.0087,VALID,24,VALID,0.0353516,
2003-04-23, 02:49:00,VALID,916.415,VALID,0,VALID,99.5552,VALID,0.186789,VALID,19.003,VALID,24,VALID,0,
2003-04-23, 02:50:01,VALID,916.417,VALID,0,VALID,99.5565,VALID,0.135847,VALID,19.0129,VALID,24,VALID,0,
2003-04-23, 02:51:00,VALID,916.415,VALID,0,VALID,99.5399,VALID,0.237732,VALID,18.9903,VALID,24,VALID,0.0380609,
2003-04-23, 02:52:00,VALID,916.415,VALID,0,VALID,99.5565,VALID,0.135847,VALID,18.9769,VALID,24,VALID,0.201891,
2003-04-23, 02:53:01,VALID,916.419,VALID,0,VALID,99.5641,VALID,0.169808,VALID,18.9871,VALID,25,VALID,0.041867,
2003-04-23, 02:54:00,VALID,916.432,VALID,0,VALID,99.5819,VALID,0.254712,VALID,18.9926,VALID,25,VALID,0,
2003-04-23, 02:55:00,VALID,916.433,VALID,0,VALID,99.5946,VALID,0.152827,VALID,18.9896,VALID,25,VALID,0.000400641,
2003-04-23, 02:56:00,VALID,916.445,VALID,0,VALID,99.5908,VALID,0.169808,VALID,18.9829,VALID,25,VALID,0.0085747,
2003-04-23, 02:57:00,VALID,916.443,VALID,0,VALID,99.6061,VALID,0.220751,VALID,18.9963,VALID,25,VALID,0,
2003-04-23, 02:58:00,VALID,916.445,VALID,0,VALID,99.6302,VALID,0.237732,VALID,18.9894,VALID,25,VALID,0.148897,
2003-04-23, 02:59:01,VALID,916.441,VALID,0,VALID,99.6315,VALID,0.169808,VALID,19.0062,VALID,25,VALID,0.365625,
2003-04-23, 03:00:00,VALID,916.439,VALID,0,VALID,99.634,VALID,0.152827,VALID,19.0125,VALID,25,VALID,0.330236,
2003-04-23, 03:01:00,VALID,916.458,VALID,0,VALID,99.6137,VALID,0.152827,VALID,18.9961,VALID,25,VALID,0.271094,
2003-04-23, 03:02:00,VALID,916.435,VALID,0,VALID,99.5972,VALID,0.220751,VALID,18.9635,VALID,25,VALID,0.00699013,
2003-04-23, 03:03:01,VALID,916.448,VALID,0,VALID,99.559,VALID,0.220751,VALID,18.9376,VALID,25,VALID,0,
2003-04-23, 03:04:00,VALID,916.457,VALID,0,VALID,99.5552,VALID,0.169808,VALID,18.9379,VALID,25,VALID,0,
2003-04-23, 03:05:00,VALID,916.446,VALID,0,VALID,99.587,VALID,0.186789,VALID,18.9342,VALID,25,VALID,0,
2003-04-23, 03:06:00,VALID,916.434,VALID,0,VALID,99.5984,VALID,0.237732,VALID,18.9247,VALID,25,VALID,0,
2003-04-23, 03:07:01,VALID,916.438,VALID,0,VALID,99.5959,VALID,0.220751,VALID,18.9376,VALID,25,VALID,0,
2003-04-23, 03:08:00,VALID,916.431,VALID,0,VALID,99.5972,VALID,0.237732,VALID,18.9346,VALID,25,VALID,0,
2003-04-23, 03:09:00,VALID,916.425,VALID,0,VALID,99.6188,VALID,0.101885,VALID,18.9381,VALID,25,VALID,0,
2003-04-23, 03:10:00,VALID,916.421,VALID,0,VALID,99.62,VALID,0.135847,VALID,18.9425,VALID,25,VALID,0,
2003-04-23, 03:11:00,VALID,916.406,VALID,0,VALID,99.62,VALID,0.135847,VALID,18.9552,VALID,25,VALID,0,
2003-04-23, 03:12:00,VALID,916.4,VALID,0,VALID,99.6366,VALID,0.0679233,VALID,18.9615,VALID,25,VALID,0,
2003-04-23, 03:13:00,VALID,916.395,VALID,0,VALID,99.6378,VALID,0.169808,VALID,18.9749,VALID,25,VALID,0.019436,
2003-04-23, 03:14:00,VALID,916.392,VALID,0,VALID,99.6544,VALID,0.0849042,VALID,18.9647,VALID,17,VALID,0.25558,
2003-04-23, 03:15:00,VALID,916.402,VALID,0,VALID,99.69,VALID,0.118866,VALID,19.0044,VALID,314,VALID,0.472973,
2003-04-23, 03:16:00,VALID,916.413,VALID,0,VALID,99.7065,VALID,0.0679233,VALID,19.0132,VALID,308,VALID,0.201014,
2003-04-23, 03:17:00,VALID,916.423,VALID,0,VALID,99.7269,VALID,0.186789,VALID,19.0201,VALID,308,VALID,0.125845,
2003-04-23, 03:18:00,VALID,916.437,VALID,0,VALID,99.7256,VALID,0.118866,VALID,19.0229,VALID,307,VALID,0.161204,
2003-04-23, 03:19:00,VALID,916.45,VALID,0,VALID,99.7319,VALID,0.152827,VALID,19.0305,VALID,304,VALID,0.0392681,
2003-04-23, 03:20:01,VALID,916.459,VALID,0,VALID,99.7408,VALID,0.0679233,VALID,19.0305,VALID,304,VALID,0.0422676,
2003-04-23, 03:21:00,VALID,916.46,VALID,0,VALID,99.7358,VALID,0.169808,VALID,19.0005,VALID,304,VALID,0.0175781,
2003-04-23, 03:22:01,VALID,916.465,VALID,0,VALID,99.7332,VALID,0.135847,VALID,18.9975,VALID,304,VALID,0.0427734,
2003-04-23, 03:23:00,VALID,916.46,VALID,0,VALID,99.718,VALID,0.169808,VALID,18.9786,VALID,304,VALID,0.109158,
2003-04-23, 03:24:01,VALID,916.462,VALID,0,VALID,99.7052,VALID,0.20377,VALID,18.9476,VALID,304,VALID,0.0665064,
2003-04-23, 03:25:00,VALID,916.458,VALID,0,VALID,99.6951,VALID,0.271693,VALID,18.9215,VALID,304,VALID,0,
2003-04-23, 03:26:00,VALID,916.454,VALID,0,VALID,99.7078,VALID,0.20377,VALID,18.9021,VALID,304,VALID,0.0505859,
2003-04-23, 03:27:00,VALID,916.455,VALID,0,VALID,99.7129,VALID,0.220751,VALID,18.9025,VALID,304,VALID,0.0168269,
2003-04-23, 03:28:00,VALID,916.442,VALID,0,VALID,99.7167,VALID,0.305655,VALID,18.8926,VALID,304,VALID,0.0855152,
2003-04-23, 03:29:00,VALID,916.437,VALID,0,VALID,99.7116,VALID,0.220751,VALID,18.8734,VALID,304,VALID,0.225586,
2003-04-23, 03:30:00,VALID,916.418,VALID,0,VALID,99.7116,VALID,0.220751,VALID,18.857,VALID,304,VALID,0.145703,
2003-04-23, 03:31:01,VALID,916.42,VALID,0,VALID,99.7192,VALID,0.271693,VALID,18.8381,VALID,304,VALID,0.00422297,
2003-04-23, 03:32:01,VALID,916.408,VALID,0,VALID,99.7269,VALID,0.254712,VALID,18.8446,VALID,304,VALID,0,
2003-04-23, 03:33:00,VALID,916.382,VALID,0,VALID,99.7523,VALID,0.220751,VALID,18.8344,VALID,304,VALID,0.215745,
2003-04-23, 03:34:01,VALID,916.357,VALID,0,VALID,99.7675,VALID,0.254712,VALID,18.8346,VALID,303,VALID,0.155449,
2003-04-23, 03:35:01,VALID,916.34,VALID,0,VALID,99.7739,VALID,0.271693,VALID,18.8312,VALID,208,VALID,0.27793,